Weather History for Cincinnati, OH

Change the Weather History Date:

Saturday, June 29, 2013

  Actual Average Record
Temperature  
Mean Temperature 68 °F -  
Max Temperature 77 °F 85 °F 100 °F (2012)
Min Temperature 60 °F 65 °F 55 °F (2000)
Cooling Degree Days 2    
Growing Degree Days 18 (Base 50)    
Moisture  
Dew Point 65 °F    
Average Humidity 90    
Maximum Humidity 100    
Minimum Humidity 68    
Precipitation  
Precipitation 0.10 in - - ()
Sea Level Pressure  
Sea Level Pressure 29.63 in    
Wind  
Wind Speed 3 mph (SW)    
Max Wind Speed 9 mph    
Max Gust Speed -    
Visibility 8 miles    
Events Fog , Rain , Thunderstorm    
Averages and records for this station are not official NWS values.
T = Trace of Precipitation, MM = Missing Value Source: NWS Daily Summary

Daily Weather History Graph

Daily Weather History Graph

Search for Another Location

Airport:

Trip Planner

Search our weather history database for the weather conditions in past years. The results will help you decide how hot, cold, wet, or windy it might be!

Date:

Astronomy

Jun. 29, 2013 Rise Set
Actual Time 6:14 AM EDT 9:07 PM EDT
Civil Twilight 5:42 AM EDT 9:39 PM EDT
Nautical Twilight 5:01 AM EDT 10:20 PM EDT
Astronomical Twilight 4:15 AM EDT 11:06 PM EDT
Moon 12:39 AM EDT (6/29) 1:21 PM EDT (6/29)
Length of Visible Light 15h 57m
Length of Day
14h 53m
Waning Gibbous, 56% of the Moon is Illuminated
Jun 29
Waning Gibbous
Jun 30
Last Quarter
Jul 8
New
Jul 15
First Quarter
Jul 22
Full

Hourly Weather History & Observations

Time (EDT) Temp. Dew Point Humidity Pressure Visibility Wind Dir Wind Speed Gust Speed Precip Events Conditions
12:53 AM 64.9 °F 64.0 °F 97% 29.62 in 10.0 mi Calm Calm - 0.00 in   Partly Cloudy
1:53 AM 64.9 °F 64.0 °F 97% 29.60 in 10.0 mi Calm Calm - N/A   Scattered Clouds
2:53 AM 64.0 °F 64.0 °F 100% 29.60 in 9.0 mi Calm Calm - N/A   Partly Cloudy
3:53 AM 64.0 °F 64.0 °F 100% 29.59 in 5.0 mi SSW 3.5 mph - N/A   Partly Cloudy
4:53 AM 64.0 °F 63.0 °F 96% 29.60 in 10.0 mi South 4.6 mph - N/A   Clear
5:53 AM 63.0 °F 63.0 °F 100% 29.60 in 4.0 mi Calm Calm - N/A   Clear
6:05 AM 62.6 °F 62.6 °F 100% 29.62 in 1.5 mi Calm Calm - N/A   Clear
6:11 AM 62.6 °F 62.6 °F 100% 29.62 in 0.2 mi Calm Calm - N/A Fog Fog
6:37 AM 60.8 °F 60.8 °F 100% 29.62 in 1.0 mi SSW 4.6 mph - N/A   Mist
6:39 AM 60.8 °F 60.8 °F 100% 29.62 in 2.5 mi SSW 4.6 mph - N/A   Partly Cloudy
6:46 AM 62.6 °F 62.6 °F 100% 29.62 in 4.0 mi SSW 4.6 mph - N/A   Partly Cloudy
6:53 AM 62.1 °F 62.1 °F 100% 29.61 in 9.0 mi SSW 5.8 mph - N/A   Clear
7:53 AM 66.9 °F 64.0 °F 90% 29.62 in 10.0 mi South 5.8 mph - N/A   Clear
8:53 AM 68.0 °F 64.0 °F 87% 29.63 in 10.0 mi SW 3.5 mph - N/A   Mostly Cloudy
9:53 AM 72.0 °F 64.9 °F 78% 29.62 in 10.0 mi SSW 3.5 mph - N/A   Mostly Cloudy
10:53 AM 73.9 °F 64.0 °F 71% 29.62 in 10.0 mi SW 8.1 mph - 0.00 in   Mostly Cloudy
11:53 AM 73.9 °F 63.0 °F 68% 29.61 in 10.0 mi WSW 9.2 mph - N/A   Mostly Cloudy
12:53 PM 75.0 °F 64.9 °F 71% 29.61 in 10.0 mi Variable 3.5 mph - N/A   Mostly Cloudy
1:04 PM 75.2 °F 66.2 °F 73% 29.63 in 10.0 mi NNW 6.9 mph - N/A Thunderstorm Thunderstorm
1:53 PM 73.0 °F 64.9 °F 76% 29.61 in 10.0 mi NW 9.2 mph - 0.00 in Thunderstorm Thunderstorm
2:22 PM 68.0 °F 64.4 °F 88% 29.63 in 5.0 mi Calm Calm - 0.08 in Rain , Thunderstorm Light Thunderstorms and Rain
2:53 PM 66.9 °F 66.0 °F 97% 29.64 in 8.0 mi SW 4.6 mph - 0.09 in Rain , Thunderstorm Light Thunderstorms and Rain
3:28 PM 71.6 °F 68.0 °F 88% 29.63 in 10.0 mi Calm Calm - 0.01 in Thunderstorm Thunderstorm
3:35 PM 71.6 °F 66.2 °F 83% 29.62 in 10.0 mi Calm Calm - 0.01 in   Mostly Cloudy
3:53 PM 73.9 °F 64.9 °F 73% 29.62 in 10.0 mi West 3.5 mph - 0.01 in   Mostly Cloudy
4:53 PM 73.9 °F 66.0 °F 76% 29.62 in 10.0 mi SSW 6.9 mph - N/A   Mostly Cloudy
5:53 PM 72.0 °F 68.0 °F 87% 29.62 in 10.0 mi SSE 3.5 mph - 0.00 in Rain Light Rain
6:53 PM 71.1 °F 69.1 °F 93% 29.63 in 10.0 mi South 4.6 mph - 0.00 in Rain Light Rain
7:53 PM 70.0 °F 68.0 °F 93% 29.62 in 10.0 mi West 3.5 mph - 0.00 in   Partly Cloudy
8:53 PM 70.0 °F 68.0 °F 93% 29.63 in 10.0 mi Calm Calm - N/A   Scattered Clouds
9:53 PM 69.1 °F 68.0 °F 96% 29.65 in 10.0 mi Calm Calm - N/A   Scattered Clouds
10:04 PM 69.8 °F 66.2 °F 88% 29.67 in 10.0 mi SSW 3.5 mph - N/A   Mostly Cloudy
10:27 PM 66.2 °F 66.2 °F 100% 29.68 in 8.0 mi SSW 4.6 mph - 0.00 in   Scattered Clouds
10:53 PM 66.9 °F 66.0 °F 97% 29.67 in 8.0 mi South 5.8 mph - 0.00 in   Clear
11:34 PM 66.2 °F 66.2 °F 100% 29.67 in 7.0 mi Calm Calm - N/A   Partly Cloudy
11:53 PM 64.9 °F 64.9 °F 100% 29.67 in 4.0 mi Calm Calm - N/A   Partly Cloudy